Regional Weather Roundup
Issued by NWS Little Rock, AR

Home | Current Version | Previous Version | Graphics & Text | Print | Product List | Glossary On
Versions: 1 2 3 4 5 6 7 8 9 10 11 12 13 14 15 16 17 18 19 20 21 22 23 24 25 26 27 28 29 30 31 32 33 34 35 36 37 38 39 40 41 42 43 44 45 46 47 48 49 50
000
ASUS44 KLZK 270305
RWRLZK

WEATHER ROUNDUP FOR ARKANSAS
NATIONAL WEATHER SERVICE LITTLE ROCK AR
1000 PM CDT THU MAR 26 2015

NOTE: "FAIR" INDICATES FEW OR NO CLOUDS BELOW 12,000 FEET WITH NO
SIGNIFICANT WEATHER AND/OR OBSTRUCTIONS TO VISIBILITY.

ARZ001-003-010-029-270400-
NORTHWEST ARKANSAS

CITY           SKY/WX    TMP DP  RH WIND       PRES   REMARKS
FAYETTEVILLE   CLEAR     39  34  82 CALM      30.10S
FORT SMITH     CLEAR     51  29  42 NW5       30.11R
HARRISON       CLEAR     42  30  62 W3        30.09S
BENTONVILLE    CLEAR     41  30  65 CALM      30.08F
ROGERS         CLEAR     41  31  67 S3        30.09F
SILOAM SPGS    CLEAR     43  28  56 CALM      30.10F
HIGHFILL       CLEAR     39  31  72 W5        30.08F
$$

ARZ004-005-016-270400-
NORTH CENTRAL ARKANSAS

CITY           SKY/WX    TMP DP  RH WIND       PRES   REMARKS
BATESVILLE     CLEAR     45  30  57 NW3       30.07S
FLIPPIN        CLEAR     45  27  49 NW6       30.08S
MTN HOME       CLEAR     43  28  55 CALM      30.07S
$$

ARZ040-041-270400-
WEST CENTRAL ARKANSAS

CITY           SKY/WX    TMP DP  RH WIND       PRES   REMARKS
MENA           CLEAR     48  32  53 W5        30.11R
MOUNT IDA      CLEAR     44  39  82 NW3       30.07R
$$

ARZ009-017-025-026-028-270400-
NORTHEAST ARKANSAS

CITY           SKY/WX    TMP DP  RH WIND       PRES   REMARKS
CORNING          N/A     43  39  87 CALM      30.07S
JONESBORO      CLEAR     37  37 100 CALM      30.07R
NEWPORT        CLEAR     47  41  80 N5        30.08S
BLYTHEVILLE    CLEAR     40  36  86 NE7       30.07S
$$

ARZ022-023-033-042-044-270400-
CENTRAL ARKANSAS

CITY           SKY/WX    TMP DP  RH WIND       PRES   REMARKS
LITTLE ROCK    FAIR      49  35  58 N5        30.08R
N LITTLE ROCK  CLEAR     48  37  67 N6        30.08R
JACKSONVILLE   FAIR      48  35  60 NW3       30.07S
SEARCY         CLEAR     48  35  60 N5        30.09R
HOT SPRINGS    CLEAR     50  37  61 CALM      30.08R
RUSSELLVILLE   CLEAR     50  30  46 NW5       30.09R
CLINTON        FAIR      39  37  93 CALM      30.10S
$$

ARZ036-270400-
EAST ARKANSAS

CITY           SKY/WX    TMP DP  RH WIND       PRES   REMARKS
WEST MEMPHIS   CLEAR     42  38  85 N7        30.05S
$$

ARZ050-053-066-070-073-270400-
SOUTHWEST ARKANSAS

CITY           SKY/WX    TMP DP  RH WIND       PRES   REMARKS
ARKADELPHIA    FAIR      48  48 100 CALM      30.10R
CAMDEN         CLEAR     45  41  87 CALM      30.09R FOG
TEXARKANA      CLEAR     52  37  56 NW6       30.10R
EL DORADO      CLEAR     44  42  93 CALM      30.09R
$$

ARZ056-057-069-270400-
SOUTHEAST ARKANSAS

CITY           SKY/WX    TMP DP  RH WIND       PRES   REMARKS
PINE BLUFF     CLEAR     45  42  89 NW3       30.07R
STUTTGART      CLEAR     45  39  81 N6        30.07S
MONTICELLO     FAIR      45  42  89 NW3       30.07R

$$




USA.gov is the U.S. government's official web portal to all federal, state and local government web resources and services.